TimeCDT,TemperatureF,Dew PointF,Humidity,Sea Level PressureIn,VisibilityMPH,Wind Direction,Wind SpeedMPH,Gust SpeedMPH,PrecipitationIn,Events,Conditions,WindDirDegrees,DateUTC
12:15 AM,66.4,66.4,100,29.95,0.2,Calm,Calm,-,N/A,Fog,Fog,0,2013-08-28 05:15:00
12:35 AM,63.9,63.9,100,29.95,0.2,Calm,Calm,-,N/A,Fog,Fog,0,2013-08-28 05:35:00
12:55 AM,63.5,63.5,100,29.96,0.2,Calm,Calm,-,N/A,Fog,Fog,0,2013-08-28 05:55:00
1:15 AM,64.4,64.4,100,29.95,0.2,Calm,Calm,-,N/A,Fog,Fog,0,2013-08-28 06:15:00
1:35 AM,64.0,64.0,100,29.95,0.2,Calm,Calm,-,N/A,Fog,Fog,0,2013-08-28 06:35:00
1:55 AM,64.6,64.6,100,29.95,0.2,Calm,Calm,-,N/A,Fog,Fog,0,2013-08-28 06:55:00
2:15 AM,65.7,65.7,100,29.96,0.2,North,3.5,-,N/A,Fog,Fog,10,2013-08-28 07:15:00
2:35 AM,65.8,65.8,100,29.96,0.2,NNE,3.5,-,N/A,Fog,Fog,20,2013-08-28 07:35:00
2:55 AM,65.8,65.8,100,29.96,0.2,Calm,Calm,-,N/A,Fog,Fog,0,2013-08-28 07:55:00
3:15 AM,65.5,65.5,100,29.98,0.2,NNE,3.5,-,N/A,Fog,Fog,20,2013-08-28 08:15:00
3:35 AM,65.3,65.3,100,29.98,0.2,NNE,3.5,-,N/A,Fog,Fog,20,2013-08-28 08:35:00
3:55 AM,64.8,64.8,100,29.99,0.2,North,3.5,-,N/A,Fog,Fog,10,2013-08-28 08:55:00
4:15 AM,64.8,64.8,100,29.99,0.2,Calm,Calm,-,N/A,Fog,Fog,0,2013-08-28 09:15:00
4:35 AM,64.6,64.6,100,30.00,0.2,NE,3.5,-,N/A,Fog,Fog,50,2013-08-28 09:35:00
4:55 AM,64.4,64.4,100,30.00,0.2,NNE,4.6,-,N/A,Fog,Fog,30,2013-08-28 09:55:00
5:15 AM,64.4,64.4,100,30.01,0.2,NE,5.8,-,N/A,Fog,Fog,40,2013-08-28 10:15:00
5:35 AM,64.0,64.0,100,30.02,0.2,NNE,3.5,-,N/A,Fog,Fog,20,2013-08-28 10:35:00
5:55 AM,63.9,63.9,100,30.03,0.2,Calm,Calm,-,N/A,Fog,Fog,0,2013-08-28 10:55:00
6:15 AM,63.5,63.5,100,30.03,0.2,North,3.5,-,N/A,Fog,Fog,10,2013-08-28 11:15:00
6:35 AM,63.5,63.5,100,30.03,0.2,Calm,Calm,-,N/A,Fog,Fog,0,2013-08-28 11:35:00
6:55 AM,63.7,63.7,100,30.03,0.5,NE,3.5,-,N/A,Fog,Fog,50,2013-08-28 11:55:00
7:15 AM,63.3,63.3,100,30.04,0.2,Calm,Calm,-,N/A,Fog,Fog,0,2013-08-28 12:15:00
7:35 AM,63.1,63.1,100,30.05,0.5,Calm,Calm,-,N/A,Fog,Fog,0,2013-08-28 12:35:00
7:55 AM,64.0,64.0,100,30.05,1.2,Calm,Calm,-,N/A,,Overcast,0,2013-08-28 12:55:00
8:15 AM,64.6,64.6,100,30.05,10.0,Calm,Calm,-,N/A,,Scattered Clouds,0,2013-08-28 13:15:00
8:35 AM,65.3,65.3,100,30.05,10.0,ENE,3.5,-,N/A,,Clear,60,2013-08-28 13:35:00
8:55 AM,66.4,66.4,100,30.05,10.0,Calm,Calm,-,N/A,,Clear,0,2013-08-28 13:55:00
9:15 AM,67.5,66.4,96,30.06,10.0,NE,3.5,-,N/A,,Clear,40,2013-08-28 14:15:00
9:35 AM,69.1,66.6,92,30.06,10.0,East,4.6,-,N/A,,Clear,80,2013-08-28 14:35:00
9:55 AM,72.5,62.4,71,30.06,10.0,ENE,3.5,-,N/A,,Clear,60,2013-08-28 14:55:00
10:15 AM,73.6,61.7,66,30.07,10.0,NE,3.5,-,N/A,,Clear,40,2013-08-28 15:15:00
10:35 AM,75.2,61.3,62,30.07,10.0,ESE,4.6,-,N/A,,Clear,110,2013-08-28 15:35:00
10:55 AM,76.3,61.5,60,30.08,10.0,ESE,4.6,-,N/A,,Clear,110,2013-08-28 15:55:00
11:15 AM,76.1,61.3,60,30.08,10.0,ENE,3.5,-,N/A,,Clear,70,2013-08-28 16:15:00
11:35 AM,76.1,60.8,59,30.08,10.0,ESE,4.6,-,N/A,,Clear,120,2013-08-28 16:35:00
11:55 AM,76.3,59.9,57,30.09,10.0,SE,3.5,-,N/A,,Clear,130,2013-08-28 16:55:00
12:15 PM,78.4,60.3,53,30.09,10.0,Calm,Calm,-,N/A,,Clear,0,2013-08-28 17:15:00
12:35 PM,79.0,60.4,53,30.08,10.0,ESE,4.6,-,N/A,,Clear,110,2013-08-28 17:35:00
12:55 PM,79.3,59.0,50,30.07,10.0,Calm,Calm,-,N/A,,Clear,0,2013-08-28 17:55:00
1:15 PM,79.7,58.6,48,30.07,10.0,Calm,Calm,-,N/A,,Clear,0,2013-08-28 18:15:00
1:35 PM,80.4,58.8,48,30.07,10.0,Calm,Calm,-,N/A,,Clear,0,2013-08-28 18:35:00
1:55 PM,80.6,58.8,47,30.07,10.0,Calm,Calm,-,N/A,,Clear,0,2013-08-28 18:55:00
2:15 PM,82.4,57.6,43,30.07,10.0,East,3.5,-,N/A,,Clear,80,2013-08-28 19:15:00
2:35 PM,82.0,57.6,43,30.07,10.0,ESE,4.6,-,N/A,,Clear,120,2013-08-28 19:35:00
2:55 PM,82.8,57.9,43,30.06,10.0,East,5.8,-,N/A,,Clear,80,2013-08-28 19:55:00
3:15 PM,82.8,57.7,42,30.06,10.0,East,4.6,-,N/A,,Clear,90,2013-08-28 20:15:00
3:35 PM,82.6,57.6,42,30.06,10.0,Calm,Calm,-,N/A,,Clear,0,2013-08-28 20:35:00
3:55 PM,83.7,57.0,40,30.06,10.0,Calm,Calm,-,N/A,,Clear,0,2013-08-28 20:55:00
4:15 PM,82.9,55.4,39,30.06,10.0,Calm,Calm,-,N/A,,Clear,0,2013-08-28 21:15:00
4:35 PM,83.5,55.9,39,30.06,10.0,SE,3.5,-,N/A,,Clear,130,2013-08-28 21:35:00
4:55 PM,81.1,57.7,45,30.07,10.0,Calm,Calm,-,N/A,,Clear,0,2013-08-28 21:55:00
5:15 PM,81.3,58.5,46,30.07,10.0,Calm,Calm,-,N/A,,Clear,0,2013-08-28 22:15:00
5:35 PM,80.8,58.8,47,30.07,10.0,Calm,Calm,-,N/A,,Clear,0,2013-08-28 22:35:00
5:55 PM,77.7,63.7,62,30.07,10.0,Calm,Calm,-,N/A,,Clear,0,2013-08-28 22:55:00
6:15 PM,77.9,66.7,68,30.07,10.0,Calm,Calm,-,N/A,,Clear,0,2013-08-28 23:15:00
6:35 PM,76.3,66.7,72,30.07,10.0,Calm,Calm,-,N/A,,Clear,0,2013-08-28 23:35:00
6:55 PM,75.9,66.6,73,30.07,10.0,Calm,Calm,-,N/A,,Clear,0,2013-08-28 23:55:00
7:15 PM,73.9,65.5,75,30.07,10.0,Calm,Calm,-,N/A,,Clear,0,2013-08-29 00:15:00
7:35 PM,73.6,66.4,78,30.07,10.0,Calm,Calm,-,N/A,,Clear,0,2013-08-29 00:35:00
7:55 PM,71.8,66.2,83,30.07,10.0,Calm,Calm,-,N/A,,Clear,0,2013-08-29 00:55:00
8:15 PM,70.9,69.4,95,30.08,10.0,Calm,Calm,-,N/A,,Clear,0,2013-08-29 01:15:00
8:35 PM,70.9,69.3,95,30.09,10.0,Calm,Calm,-,N/A,,Clear,0,2013-08-29 01:35:00
8:55 PM,70.0,68.7,96,30.08,10.0,Calm,Calm,-,N/A,,Clear,0,2013-08-29 01:55:00
9:15 PM,70.5,69.1,95,30.09,10.0,Calm,Calm,-,N/A,,Clear,0,2013-08-29 02:15:00
9:35 PM,69.3,68.4,97,30.09,10.0,Calm,Calm,-,N/A,,Clear,0,2013-08-29 02:35:00
9:55 PM,68.9,68.2,98,30.09,10.0,Calm,Calm,-,N/A,,Clear,0,2013-08-29 02:55:00
10:15 PM,68.0,67.5,98,30.09,10.0,Calm,Calm,-,N/A,,Clear,0,2013-08-29 03:15:00
10:35 PM,67.3,66.7,98,30.09,10.0,Calm,Calm,-,N/A,,Clear,0,2013-08-29 03:35:00
10:55 PM,67.3,66.9,99,30.09,10.0,Calm,Calm,-,N/A,,Clear,0,2013-08-29 03:55:00
11:15 PM,67.3,67.3,100,30.09,7.0,Calm,Calm,-,N/A,,Clear,0,2013-08-29 04:15:00
11:35 PM,68.2,67.3,97,30.09,10.0,Calm,Calm,-,N/A,,Clear,0,2013-08-29 04:35:00
11:55 PM,67.5,66.7,98,30.09,10.0,Calm,Calm,-,N/A,,Clear,0,2013-08-29 04:55:00